Phoenix, AZ

9:48 PM MST on July 25, 2017 (GMT -0700)
Phoenix Sky Harbor International

Weather History for KPHX - October, 2012

Change the Weather History Date:

Tuesday, October 2, 2012

  Actual Average Record
Temperature  
Mean Temperature 89 °F 82 °F  
Max Temperature 104 °F 94 °F 107 °F (1980)
Min Temperature 74 °F 71 °F 49 °F (1927)
Degree Days  
Heating Degree Days 0 0  
Month to date heating degree days 0 0  
Since 1 July heating degree days 0 0  
Cooling Degree Days 24 17  
Month to date cooling degree days 48 35  
Year to date cooling degree days 4539 4204  
Growing Degree Days 38 (Base 50)    
Moisture  
Dew Point 36 °F    
Average Humidity 20    
Maximum Humidity 31    
Minimum Humidity 8    
Precipitation  
Precipitation 0.00 in 0.02 in 0.60 in (1981)
Month to date precipitation 0.00 0.04  
Year to date precipitation 3.36 5.96  
Snow  
Snow 0.00 in - - ()
Month to date snowfall 0.0  
Year to date snowfall 0.0  
Since 1 July snowfall 0.0  
Snow Depth 0.00 in    
Sea Level Pressure  
Sea Level Pressure 29.77 in    
Wind  
Wind Speed 4 mph (SE)    
Max Wind Speed 10 mph    
Max Gust Speed 14 mph    
Visibility 10 miles    
Events      
T = Trace of Precipitation, MM = Missing Value Source: NWS Daily Summary

Daily Weather History Graph

Daily Weather History Graph

Search for Another Location

Airport or City:

Trip Planner

Search our weather history database for the weather conditions in past years. The results will help you decide how hot, cold, wet, or windy it might be!

Date:

Astronomy

Oct. 02, 2012 Rise Set
Actual Time 6:23 AM MST 6:10 PM MST
Civil Twilight 5:58 AM MST 6:35 PM MST
Nautical Twilight 5:29 AM MST 7:03 PM MST
Astronomical Twilight 5:00 AM MST 7:32 PM MST
Moon 7:36 PM MST (10/2) 8:44 AM MST (10/2)
Length of Visible Light 12h 36m
Length of Day
11h 46m
Waning Gibbous, 93% of the Moon is Illuminated
Oct 2
Waning Gibbous
Oct 8
Last Quarter
Oct 15
New
Oct 21
First Quarter
Oct 29
Full

Hourly Weather History & Observations

Time (MST) Temp. Dew Point Humidity Pressure Visibility Wind Dir Wind Speed Gust Speed Precip Events Conditions
12:51 AM 82.0 °F 39.9 °F 22% 29.77 in 10.0 mi ESE 4.6 mph - N/A   Clear
1:51 AM 78.1 °F 39.9 °F 25% 29.78 in 10.0 mi SSW 3.5 mph - N/A   Clear
2:51 AM 78.1 °F 39.0 °F 25% 29.78 in 10.0 mi Calm Calm - N/A   Clear
3:51 AM 73.9 °F 41.0 °F 30% 29.78 in 10.0 mi East 3.5 mph - N/A   Clear
4:51 AM 75.0 °F 39.0 °F 27% 29.79 in 10.0 mi East 8.1 mph - N/A   Clear
5:51 AM 75.0 °F 37.0 °F 25% 29.81 in 10.0 mi East 5.8 mph - N/A   Clear
6:51 AM 75.9 °F 37.0 °F 24% 29.81 in 10.0 mi ESE 5.8 mph - N/A   Clear
7:51 AM 80.1 °F 37.0 °F 21% 29.83 in 10.0 mi ESE 5.8 mph - N/A   Clear
8:51 AM 86.0 °F 35.6 °F 17% 29.89 in 10.0 mi ESE 8.1 mph - N/A   Clear
9:51 AM 90.0 °F 35.1 °F 14% 29.84 in 10.0 mi ESE 9.2 mph - N/A   Clear
10:51 AM 93.9 °F 35.1 °F 13% 29.83 in 10.0 mi East 3.5 mph - N/A   Clear
11:51 AM 97.0 °F 35.1 °F 11% 29.81 in 10.0 mi Variable 3.5 mph - N/A   Partly Cloudy
12:51 PM 100.0 °F 34.0 °F 10% 29.78 in 10.0 mi South 5.8 mph - N/A   Clear
1:51 PM 99.0 °F 33.1 °F 10% 29.75 in 10.0 mi Variable 3.5 mph - N/A   Clear
2:51 PM 100.9 °F 30.0 °F 8% 29.73 in 10.0 mi SW 4.6 mph - N/A   Clear
3:51 PM 102.0 °F 30.9 °F 8% 29.72 in 10.0 mi West 5.8 mph - N/A   Clear
4:51 PM 100.9 °F 30.9 °F 9% 29.71 in 10.0 mi WNW 3.5 mph - N/A   Clear
5:51 PM 100.0 °F 28.9 °F 8% 29.70 in 10.0 mi WSW 5.8 mph - N/A   Clear
6:51 PM 96.1 °F 33.1 °F 11% 29.71 in 10.0 mi SW 3.5 mph - N/A   Clear
7:51 PM 91.9 °F 37.9 °F 15% 29.72 in 10.0 mi Calm Calm - N/A   Clear
8:51 PM 90.0 °F 37.0 °F 15% 29.73 in 10.0 mi Calm Calm - N/A   Clear
9:51 PM 89.1 °F 37.0 °F 16% 29.74 in 10.0 mi NE 3.5 mph - N/A   Clear
10:51 PM 84.0 °F 41.0 °F 22% 29.75 in 10.0 mi East 5.8 mph - N/A   Clear
11:51 PM 82.0 °F 37.9 °F 21% 29.75 in 10.0 mi Calm Calm - N/A   Clear